User: anonymous   Login
Location: Mascot Post Office (historical)
(40.2645°N, 99.5462°W)
Time: 14:10:14
(UTC+00:00)
Language:

Meteor 1-25 Rocket - Orbit

View from above orbital plane
View from above orbital plane
View from above satellite
View from above satellite

Ground track
Ground track

The orbit data is extracted from the following two-line orbital elements,

1  8846U 76043B   20274.94113060 -.00000034 +00000-0 -26522-4 0  9995
2  8846 081.2277 222.4732 0038439 222.1879 137.6332 14.08608698279985
Epoch (UTC): 30 September 2020 22:35:13
Eccentricity: 0.0038439
inclination: 81.2277°
perigee height: 836 km
apogee height: 892 km
right ascension of ascending node: 222.4732°
argument of perigee: 222.1879°
revolutions per day: 14.08608698
mean anomaly at epoch: 137.6332°
orbit number at epoch: 27998

The dashed part of the orbit path shows where the satellite is in the earth's shadow,  

DLR